Location: Sungai Liu
(2.3667°N, 113.8667°E)
Time: 14:14:56
(UTC+00:00)

Atlas Centaur 2 - Pass Details

Date: 20 May 2022
Orbit: 459 x 1304 km, 30.4° (Epoch: 06 July)

Event Time Altitude Azimuth Distance (km) Brightness Sun altitude
Rises 12:16:58 0° 277° (W) 2,461 5.8 -26.1°
Reaches altitude 10° 12:19:25 10° 260° (W) 1,618 4.4 -26.7°
Enters shadow 12:21:03 18° 235° (SW) 1,233 3.4 -27.1°
